This is the latest recevied weather packets stored in our database for station/object KD9ZDW. If no packets are shown the sender has not sent any weather packets the latest 10 day(s).
| Time | Temp. | Humidity | Pressure | Rain* | Wind** | Luminosity | Snow |
|---|---|---|---|---|---|---|---|
| 1777963984 | 13.33° C | 92% | 1005.8 hPa | 0 mm | - | 0 W/m² | - |
| 1777963681 | 13.33° C | 91% | 1006 hPa | 1.78 mm | - | 0 W/m² | - |
| 1777963378 | 13.33° C | 91% | 1005.7 hPa | 3.05 mm | - | 0 W/m² | - |
| 1777963076 | 13.33° C | 90% | 1006.2 hPa | 3.05 mm | - | 0 W/m² | - |
| 1777962772 | 13.89° C | 90% | 1006.4 hPa | 3.56 mm | - | 0 W/m² | - |
| 1777962469 | 13.89° C | 90% | 1006.8 hPa | 3.05 mm | - | 0 W/m² | - |
| 1777962166 | 13.89° C | 89% | 1006.8 hPa | 4.32 mm | - | 0 W/m² | - |
| 1777961863 | 13.89° C | 89% | 1006.9 hPa | 4.83 mm | - | 0 W/m² | - |
| 1777961561 | 13.89° C | 88% | 1006.7 hPa | 3.05 mm | - | 0 W/m² | - |
| 1777961258 | 13.89° C | 87% | 1006.9 hPa | 3.05 mm | - | 0 W/m² | - |
| 1777960955 | 14.44° C | 86% | 1006.6 hPa | 3.05 mm | - | 0 W/m² | - |
| 1777960650 | 14.44° C | 84% | 1006.6 hPa | 0 mm | - | 0 W/m² | - |
| 1777960346 | 14.44° C | 83% | 1006.5 hPa | 0 mm | - | 0 W/m² | - |
| 1777960044 | 14.44° C | 83% | 1006.3 hPa | 0 mm | - | 0 W/m² | - |
| 1777959742 | 15° C | 82% | 1006.3 hPa | 1.78 mm | - | 0 W/m² | - |
| 1777959440 | 15° C | 80% | 1006.2 hPa | 1.78 mm | - | 0 W/m² | - |
| 1777959136 | 15.56° C | 78% | 1006.3 hPa | 0 mm | - | 0 W/m² | - |
| 1777958833 | 15.56° C | 78% | 1006.4 hPa | 0 mm | - | 0 W/m² | - |
| 1777958530 | 15.56° C | 77% | 1006.5 hPa | 0 mm | - | 0 W/m² | - |
| 1777958227 | 16.11° C | 75% | 1006.2 hPa | 0 mm | - | 0 W/m² | - |
| 1777957925 | 16.67° C | 73% | 1006.3 hPa | 0 mm | - | 0 W/m² | - |
| 1777957623 | 16.67° C | 72% | 1006.3 hPa | 0 mm | - | 0 W/m² | - |
| 1777957322 | 16.67° C | 71% | 1006.3 hPa | 0 mm | - | 0 W/m² | - |
| 1777957021 | 17.22° C | 70% | 1006 hPa | 0 mm | - | 0 W/m² | - |
| 1777956720 | 17.22° C | 69% | 1006 hPa | 0 mm | - | 0 W/m² | - |
* Rain latest hour (hover to see other rain measurements)
** Current wind speed in m/s (hover to see current wind gust speed)